Skip Page Navigation
NASA JPL Caltech
NASA Logo - Jet Propulsion Laboratory + View the NASA Portal
+ Center for Near-Earth Object Studies
JPL Home Earth Solar System Stars & Galaxies Technology
JPL Solar System Dynamics
BODIES ORBITS EPHEMERIDES TOOLS PHYSICAL DATA DISCOVERY FAQ SITE MAP
IMPORTANT: The SSD Announcement email list is now available. Major changes are coming in the near future, including possible hostname and/or URL changes. To be notified of such changes, subscribe to this email list.

Please visit this page for more details.


JPL Small-Body Database Browser
Search: [ help ]  
266035 (2006 GJ53)
Classification: Main-belt Asteroid          SPK-ID: 2266035
Ephemeris | Orbit Diagram | Orbital Elements | Mission Design | Physical Parameters | Discovery Circumstances | Close-Approach Data ]

[ show orbit diagram ]
Orbital Elements at Epoch 2458600.5 (2019-Apr-27.0) TDB
Reference: JPL 13 (heliocentric ecliptic J2000)
 Element Value Uncertainty (1-sigma)   Units 
e .1595928940055971 6.4898e-08  
a 3.06175955585732 3.7147e-08 au
q 2.573124487588759 2.0001e-07 au
i 16.43852942841808 6.5452e-06 deg
node 67.20025302679655 2.6723e-05 deg
peri 96.36769606022793 3.4435e-05 deg
M 166.1103534725908 2.3311e-05 deg
tp 2457697.580044643351
(2016-Nov-05.08004464)
0.00011923 TDB
period 1956.838795012431
5.36
3.5612e-05
9.75e-08
d
yr
n .1839701874868609 3.348e-09 deg/d
Q 3.550394624125881 4.3075e-08 au
  Orbit Determination Parameters
   # obs. used (total)      219  
   data-arc span      6792 days (18.60 yr)  
   first obs. used      2001-04-24  
   last obs. used      2019-11-28  
   planetary ephem.      DE431  
   SB-pert. ephem.      SB431-N16  
   condition code      0  
   norm. resid. RMS      .61042  
   source      ORB  
   producer      Otto Matic  
   solution date      2019-Dec-04 19:32:46  

Additional Information
 Earth MOID = 1.64373 au 
 Jupiter MOID = 1.71637 au 
 T_jup = 3.152 
[ show covariance matrix ]

Ephemeris | Orbit Diagram | Orbital Elements | Mission Design | Physical Parameters | Discovery Circumstances | Close-Approach Data ]

Physical Parameter Table
Parameter Symbol Value Units Sigma Reference Notes
absolute magnitude H 15.4   n/a MPO454979  

266035 (2006 GJ53)          Discovered 2006-Apr-06 by CSS at Catalina
Reference: 20110218/Numbers.arcLast Updated: 2011-02-22

[ show close-approach data ]
Ephemeris | Orbit Diagram | Orbital Elements | Mission Design | Physical Parameters | Discovery Circumstances | Close-Approach Data ]
ABOUT SSD CREDITS/AWARDS PRIVACY/COPYRIGHT GLOSSARY LINKS
FirstGov 2019-Dec-10 03:20 UT
(server date/time)  
NASA Home Page
Site Manager:   Ryan S. Park
Webmaster  Alan B. Chamberlin